• In Italy
  • List of Countries
  • For 7 days
  • Water Temperature
  • Satellite Maps
  • Weather Map
  • Weather Widgets
  • user-avatar
    Login

    Hourly Weather Mendoza

    Today, 22 October, Monday

    Time Temperature Precipitation Wind Pressure Humidity
    00:00 +18°C° 0 mm 4 mps 698 mmHg 69%
    01:00 +17°C° 0 mm 4 mps 698 mmHg 72%
    02:00 +15°C° 0 mm 4 mps 698 mmHg 72%
    03:00 +15°C° 0 mm 4 mps 698 mmHg 73%
    04:00 +15°C° 0 mm 4 mps 697 mmHg 73%
    05:00 +15°C° 0 mm 4 mps 698 mmHg 72%
    06:00 +15°C° 0 mm 4 mps 698 mmHg 71%
    07:00 +17°C° 0 mm 4 mps 698 mmHg 72%
    08:00 +17°C° 0 mm 5 mps 698 mmHg 66%
    09:00 +19°C° 0 mm 5 mps 698 mmHg 60%
    10:00 +20°C° 0 mm 5 mps 698 mmHg 54%
    11:00 +21°C° 0 mm 5 mps 698 mmHg 50%
    12:00 +22°C° 0 mm 5 mps 698 mmHg 46%
    13:00 +23°C° 0 mm 5 mps 698 mmHg 42%
    14:00 +23°C° 0 mm 5 mps 697 mmHg 43%
    15:00 +22°C° 0 mm 5 mps 697 mmHg 44%
    16:00 +22°C° 0 mm 5 mps 697 mmHg 44%
    17:00 +21°C° 0 mm 5 mps 698 mmHg 49%
    18:00 +20°C° 0 mm 4 mps 698 mmHg 53%
    19:00 +18°C° 0 mm 4 mps 698 mmHg 57%
    20:00 +18°C° 0 mm 4 mps 699 mmHg 60%
    21:00 +17°C° 0 mm 4 mps 699 mmHg 63%
    22:00 +15°C° 0 mm 4 mps 699 mmHg 65%
    23:00 +14°C° 0 mm 4 mps 699 mmHg 66%

    Tomorrow, 23 October, Tuesday

    Time Temperature Precipitation Wind Pressure Humidity
    00:00 +14°C° 0 mm 4 mps 699 mmHg 67%
    01:00 +14°C° 0 mm 5 mps 699 mmHg 68%
    02:00 +13°C° 0 mm 5 mps 699 mmHg 67%
    03:00 +13°C° 0 mm 4 mps 699 mmHg 66%
    04:00 +13°C° 0 mm 4 mps 699 mmHg 66%
    05:00 +13°C° 0 mm 5 mps 699 mmHg 63%
    06:00 +14°C° 0 mm 5 mps 699 mmHg 60%
    07:00 +15°C° 0 mm 5 mps 699 mmHg 57%
    08:00 +16°C° 0 mm 5 mps 699 mmHg 54%
    09:00 +17°C° 0 mm 5 mps 699 mmHg 50%
    10:00 +20°C° 0 mm 5 mps 699 mmHg 46%
    11:00 +21°C° 0 mm 4 mps 698 mmHg 44%
    12:00 +22°C° 0 mm 4 mps 698 mmHg 42%
    13:00 +22°C° 0 mm 3 mps 697 mmHg 40%
    14:00 +24°C° 0 mm 3 mps 697 mmHg 40%
    15:00 +24°C° 0 mm 3 mps 697 mmHg 41%
    16:00 +24°C° 0 mm 3 mps 696 mmHg 41%
    17:00 +22°C° 0 mm 3 mps 697 mmHg 45%
    18:00 +21°C° 0 mm 3 mps 697 mmHg 48%
    19:00 +20°C° 0 mm 4 mps 697 mmHg 52%
    20:00 +20°C° 0.1 mm 4 mps 697 mmHg 56%
    21:00 +19°C° 0.1 mm 4 mps 698 mmHg 61%
    22:00 +19°C° 0.1 mm 4 mps 698 mmHg 65%
    23:00 +18°C° 0.1 mm 4 mps 697 mmHg 67%

    Day after tomorrow, 24 October, Wednesday

    Time Temperature Precipitation Wind Pressure Humidity
    00:00 +18°C° 0.1 mm 4 mps 697 mmHg 68%
    01:00 +17°C° 0.1 mm 4 mps 696 mmHg 70%
    02:00 +17°C° 0 mm 4 mps 696 mmHg 69%
    03:00 +15°C° 0 mm 4 mps 696 mmHg 67%
    04:00 +16°C° 0 mm 3 mps 696 mmHg 66%
    05:00 +17°C° 0 mm 3 mps 696 mmHg 62%
    06:00 +18°C° 0 mm 3 mps 697 mmHg 59%
    07:00 +19°C° 0 mm 3 mps 697 mmHg 55%
    08:00 +20°C° 0 mm 3 mps 697 mmHg 51%
    09:00 +22°C° 0 mm 3 mps 697 mmHg 47%
    10:00 +24°C° 0 mm 3 mps 697 mmHg 43%
    11:00 +25°C° 0 mm 3 mps 697 mmHg 39%
    12:00 +26°C° 0 mm 3 mps 697 mmHg 35%
    13:00 +27°C° 0 mm 3 mps 696 mmHg 31%
    14:00 +27°C° 0 mm 4 mps 696 mmHg 31%
    15:00 +27°C° 0 mm 4 mps 696 mmHg 31%
    16:00 +27°C° 0 mm 5 mps 696 mmHg 32%
    17:00 +26°C° 0.6 mm 5 mps 697 mmHg 38%
    18:00 +25°C° 0.6 mm 5 mps 697 mmHg 44%
    19:00 +23°C° 0.6 mm 5 mps 698 mmHg 50%
    20:00 +22°C° 1.2 mm 5 mps 698 mmHg 55%
    21:00 +21°C° 1.2 mm 4 mps 698 mmHg 60%
    22:00 +20°C° 1.2 mm 4 mps 699 mmHg 64%
    23:00 +20°C° 0.4 mm 5 mps 698 mmHg 66%

    25 October, Thursday

    Time Temperature Precipitation Wind Pressure Humidity
    00:00 +19°C° 0.4 mm 5 mps 698 mmHg 68%
    01:00 +17°C° 0.4 mm 5 mps 698 mmHg 70%
    02:00 +17°C° 0 mm 5 mps 698 mmHg 72%
    03:00 +16°C° 0 mm 5 mps 698 mmHg 74%
    04:00 +16°C° 0 mm 5 mps 698 mmHg 76%
    05:00 +16°C° 0 mm 5 mps 698 mmHg 75%
    06:00 +16°C° 0 mm 5 mps 699 mmHg 74%
    07:00 +16°C° 0 mm 5 mps 699 mmHg 72%
    08:00 +19°C° 0 mm 5 mps 699 mmHg 67%
    09:00 +20°C° 0 mm 5 mps 699 mmHg 61%
    10:00 +21°C° 0 mm 5 mps 699 mmHg 55%
    11:00 +22°C° 0 mm 5 mps 699 mmHg 52%
    12:00 +22°C° 0 mm 5 mps 698 mmHg 48%
    13:00 +23°C° 0 mm 5 mps 698 mmHg 45%
    14:00 +23°C° 0 mm 5 mps 697 mmHg 45%
    15:00 +23°C° 0 mm 5 mps 697 mmHg 45%
    16:00 +23°C° 0 mm 5 mps 697 mmHg 45%
    17:00 +23°C° 0 mm 5 mps 697 mmHg 47%
    18:00 +22°C° 0 mm 4 mps 698 mmHg 50%
    19:00 +21°C° 0 mm 4 mps 698 mmHg 52%
    20:00 +20°C° 0.1 mm 4 mps 698 mmHg 56%
    21:00 +20°C° 0.1 mm 3 mps 699 mmHg 60%
    22:00 +19°C° 0.1 mm 3 mps 699 mmHg 63%
    23:00 +19°C° 0 mm 3 mps 698 mmHg 66%

    26 October, Friday

    Time Temperature Precipitation Wind Pressure Humidity
    00:00 +18°C° 0 mm 3 mps 698 mmHg 68%
    01:00 +17°C° 0 mm 3 mps 698 mmHg 70%
    02:00 +17°C° 0 mm 4 mps 698 mmHg 70%
    03:00 +15°C° 0 mm 4 mps 698 mmHg 70%
    04:00 +15°C° 0 mm 4 mps 698 mmHg 70%
    05:00 +15°C° 0 mm 4 mps 698 mmHg 68%
    06:00 +17°C° 0 mm 4 mps 698 mmHg 65%
    07:00 +17°C° 0 mm 4 mps 699 mmHg 63%
    08:00 +19°C° 0 mm 4 mps 699 mmHg 59%
    09:00 +20°C° 0 mm 4 mps 699 mmHg 55%
    10:00 +22°C° 0 mm 3 mps 699 mmHg 50%
    11:00 +24°C° 0 mm 3 mps 698 mmHg 47%
    12:00 +25°C° 0 mm 3 mps 698 mmHg 45%
    13:00 +26°C° 0 mm 3 mps 697 mmHg 42%
    14:00 +26°C° 0 mm 3 mps 697 mmHg 42%
    15:00 +26°C° 0 mm 3 mps 696 mmHg 42%
    16:00 +26°C° 0 mm 3 mps 696 mmHg 41%
    17:00 +25°C° 0 mm 3 mps 696 mmHg 45%
    18:00 +24°C° 0 mm 3 mps 697 mmHg 48%
    19:00 +24°C° 0 mm 2 mps 697 mmHg 52%
    20:00 +23°C° 0.1 mm 2 mps 697 mmHg 54%
    21:00 +23°C° 0.1 mm 2 mps 697 mmHg 56%
    22:00 +23°C° 0.1 mm 2 mps 698 mmHg 58%
    23:00 +21°C° 0.5 mm 2 mps 697 mmHg 60%

    27 October, Saturday

    Time Temperature Precipitation Wind Pressure Humidity
    00:00 +20°C° 0.5 mm 2 mps 696 mmHg 63%
    01:00 +21°C° 0.5 mm 1 mps 696 mmHg 66%
    02:00 +20°C° 0.4 mm 2 mps 696 mmHg 65%
    03:00 +19°C° 0.4 mm 2 mps 696 mmHg 64%
    04:00 +19°C° 0.4 mm 2 mps 696 mmHg 63%
    05:00 +20°C° 0.1 mm 2 mps 696 mmHg 61%
    06:00 +21°C° 0.1 mm 3 mps 696 mmHg 59%
    07:00 +21°C° 0.1 mm 3 mps 697 mmHg 57%
    08:00 +22°C° 0.1 mm 3 mps 697 mmHg 54%
    09:00 +24°C° 0.1 mm 3 mps 697 mmHg 51%
    10:00 +25°C° 0.1 mm 3 mps 697 mmHg 48%
    11:00 +26°C° 0.2 mm 3 mps 696 mmHg 46%
    12:00 +27°C° 0.2 mm 3 mps 696 mmHg 45%
    13:00 +27°C° 0.2 mm 3 mps 695 mmHg 44%
    14:00 +27°C° 0.9 mm 4 mps 695 mmHg 44%
    15:00 +27°C° 0.9 mm 4 mps 696 mmHg 44%
    16:00 +27°C° 0.9 mm 4 mps 696 mmHg 44%
    17:00 +26°C° 2.1 mm 4 mps 696 mmHg 50%
    18:00 +25°C° 2.1 mm 5 mps 697 mmHg 55%
    19:00 +23°C° 2.1 mm 5 mps 698 mmHg 61%
    20:00 +21°C° 3 mm 5 mps 698 mmHg 69%
    21:00 +20°C° 3 mm 6 mps 698 mmHg 77%
    22:00 +17°C° 3 mm 6 mps 698 mmHg 85%
    23:00 +17°C° 0.6 mm 5 mps 698 mmHg 84%

    28 October, Sunday

    Time Temperature Precipitation Wind Pressure Humidity
    00:00 +17°C° 0.6 mm 5 mps 698 mmHg 83%
    01:00 +18°C° 0.6 mm 4 mps 698 mmHg 83%
    02:00 +18°C° 0.2 mm 4 mps 699 mmHg 82%
    03:00 +18°C° 0.2 mm 3 mps 699 mmHg 82%
    04:00 +17°C° 0.2 mm 2 mps 699 mmHg 81%
    05:00 +18°C° 0 mm 2 mps 699 mmHg 78%
    06:00 +18°C° 0 mm 2 mps 699 mmHg 74%
    07:00 +20°C° 0 mm 1 mps 700 mmHg 71%
    08:00 +20°C° 0 mm 2 mps 699 mmHg 63%
    09:00 +21°C° 0 mm 2 mps 699 mmHg 55%
    10:00 +24°C° 0 mm 3 mps 699 mmHg 48%
    11:00 +25°C° 0 mm 3 mps 698 mmHg 45%
    12:00 +25°C° 0 mm 4 mps 698 mmHg 43%
    13:00 +26°C° 0 mm 4 mps 697 mmHg 41%
    14:00 +26°C° 0 mm 4 mps 697 mmHg 41%
    15:00 +26°C° 0 mm 4 mps 696 mmHg 42%
    16:00 +26°C° 0 mm 4 mps 696 mmHg 43%
    17:00 +26°C° 0.3 mm 4 mps 696 mmHg 45%
    18:00 +25°C° 0.3 mm 3 mps 697 mmHg 46%
    19:00 +24°C° 0.3 mm 3 mps 697 mmHg 48%
    20:00 +24°C° 0.2 mm 2 mps 697 mmHg 51%
    21:00 +23°C° 0.2 mm 2 mps 697 mmHg 53%
    22:00 +23°C° 0.2 mm 2 mps 697 mmHg 56%
    23:00 +21°C° 0.1 mm 2 mps 697 mmHg 57%
    Show more